This demonstration page uses our WeatherBlox Daily Observations layout. Learn more.

Left ArrowRight Arrow

39.51506, -84.39828

Hourly Observations for February 10, 2017

Temp ( °F °C ) Dew Point ( °F °C ) Humidity (%) Winds ( mph kmh ) Pressure ( in mb ) Visibility ( mi km ) Precip ( " mm )
12:53 am 00:53 Clear 15 -9.4 7 -13.9 70 70 S 3 6 30.40 1030 10 16 0.00 0.00
1:53 am 01:53 Clear 15 -9.4 9 -12.8 77 77 Calm 30.39 1029 10 16 0.00 0.00
2:53 am 02:53 Clear 16 -8.9 8 -13.3 71 71 SSW 3 6 30.40 1029 10 16 0.00 0.00
3:53 am 03:53 Clear 17 -8.3 9 -12.8 70 70 SSW 3 6 30.39 1029 10 16 0.00 0.00
4:53 am 04:53 Mostly Cloudy 18 -7.8 10 -12.2 71 71 ESE 5 7 30.37 1029 10 16 0.00 0.00
5:53 am 05:53 Cloudy 19 -7.2 10 -12.2 68 68 SSE 8 13 30.36 1028 10 16 0.00 0.00
6:53 am 06:53 Cloudy 20 -6.7 10 -12.2 65 65 S 8 13 30.36 1028 10 16 0.00 0.00
7:53 am 07:53 Mostly Cloudy 21 -6.1 11 -11.7 65 65 S 9 15 30.35 1028 10 16 0.00 0.00
8:53 am 08:53 Cloudy 22 -5.6 13 -10.6 68 68 S 13 20 30.33 1027 10 16 0.00 0.00
9:53 am 09:53 Sunny 24 -4.4 14 -10 65 65 S 14 22 30.29 1026 10 16 0.00 0.00
10:53 am 10:53 Sunny 26 -3.3 15 -9.4 63 63 S 14 22 30.25 1025 10 16 0.00 0.00
11:53 am 11:53 Sunny 28 -2.2 16 -8.9 60 60 S 16 26 30.19 1023 10 16 0.00 0.00
12:53 pm 12:53 Sunny 31 -0.6 16 -8.9 54 54 S 16 26 30.11 1020 10 16 0.00 0.00
1:53 pm 13:53 Sunny 35 1.7 17 -8.3 48 48 S 17 28 30.04 1017 10 16 0.00 0.00
2:53 pm 14:53 Sunny 38 3.3 17 -8.3 43 43 S 18 30 29.97 1015 10 16 0.00 0.00
3:53 pm 15:53 Sunny 43 6.1 20 -6.7 40 40 SSW 12 19 29.94 1014 10 16 0.00 0.00
4:53 pm 16:53 Sunny 46 7.8 21 -6.1 37 37 SSW 13 20 29.89 1012 10 16 0.00 0.00
5:53 pm 17:53 Sunny 45 7.2 25 -3.9 46 46 SSW 12 19 29.88 1012 10 16 0.00 0.00
6:53 pm 18:53 Clear 44 6.7 25 -3.9 47 47 SSW 10 17 29.88 1012 10 16 0.00 0.00
7:53 pm 19:53 Clear 40 4.4 26 -3.3 58 58 S 9 15 29.86 1011 10 16 0.00 0.00
8:53 pm 20:53 Clear 46 7.8 26 -3.3 46 46 SSW 9 15 29.86 1011 10 16 0.00 0.00
9:53 pm 21:53 Clear 46 7.8 26 -3.3 46 46 SW 9 15 29.86 1011 10 16 0.00 0.00
10:53 pm 22:53 Clear 47 8.3 27 -2.8 46 46 SW 12 19 29.85 1011 10 16 0.00 0.00
11:53 pm 23:53 Clear 48 8.9 28 -2.2 46 46 SW 12 19 29.87 1012 10 16 0.00 0.00

Powered by AerisWeather